Location: Eaton
(41.3139°N, 82.0207°W)
Time: 08:39:36
(UTC+00:00)

Cosmos 1953 - Pass Details

Date: 17 June 2021
Orbit: 538 x 557 km, 82.5° (Epoch: 27 July)

Event Time Altitude Azimuth Distance (km) Brightness Sun altitude
Rises 03:30:44 0° 342° (NNW) 2,750 7.4 -19.7°
Reaches altitude 10° 03:33:03 10° 333° (NNW) 1,850 6.2 -19.9°
Maximum altitude 03:36:43 34° 269° (W) 936 3.7 -20.3°
Enters shadow 03:38:23 24° 225° (SW) 1,177 3.8 -20.4°
